Location: Newark
(43.4306°N, 0.3089°E)
Time: 08:01:17
(UTC+00:00)

Transit 2A Rocket - Pass Details

Date: 27 August 2019
Orbit: 592 x 911 km, 66.7° (Epoch: 19 September)

Event Time Altitude Azimuth Distance (km) Brightness Sun altitude
Rises 19:28:58 0° 252° (WSW) 3,400 9.2 -8.7°
Reaches altitude 10° 19:32:06 10° 268° (W) 2,414 8.7 -9.2°
Maximum altitude 19:36:15 21° 316° (NW) 1,694 7.8 -9.9°
Drops below altitude 10° 19:40:10 10° 6° (N) 2,260 7.7 -10.6°
Sets 19:43:01 0° 22° (NNE) 3,123 8.2 -11.0°
